[[{"header":{"parameterUnit":"m.s-1","parameterCategory":1,"la1":30.2991,"la2":30.254,"lo1":-89.0895,"lo2":-89.0444,"dy":0.0017,"dx":0.0017,"nx":28,"ny":28,"refTime":"2024-12-26T03:00:00:Z","depth":0,"parameterNumber":2,"parameterNumberName":"U-component_of_WINDS"},"data":[0,0,0,0,0,0,0,0,0,0,0,0,0,0,0,0,0,0,0,0,0,0,0,0,0,0,0,0,0,0,0,0,0,0,0,0,0,0,0,0,0,0,0,0,0,0,0,0,0,0,0,0,0,0,0,0,0,0,-1.5963,-1.5963,0,-1.5979,-1.5979,-1.5979,-1.5966,-1.5965,-1.5964,-1.5964,-1.5981,-1.5982,-1.5983,0,0,0,0,0,0,0,0,0,0,0,0,0,-1.5922,-1.5923,-1.5963,-1.5963,-1.5963,-1.5979,-1.5979,-1.5979,-1.5966,-1.5965,-1.5964,-1.5964,-1.5981,-1.5982,-1.5983,0,0,0,0,0,0,0,0,0,0,0,0,0,-1.5939,-1.5923,-1.5963,-1.5958,-1.5958,-1.5978,-1.5979,-1.5979,-1.5966,-1.5965,-1.5964,-1.5963,-1.5981,-1.5982,-1.5983,-1.6009,0,0,-1.5988,-1.5989,0,0,0,0,0,0,0,0,-1.5938,-1.5941,-1.5959,-1.5959,-1.5958,-1.5969,-1.5971,-1.5989,-1.5966,-1.5963,-1.5964,-1.5963,-1.5978,-1.598,-1.5984,-1.601,-1.6011,-1.5988,-1.5989,-1.599,-1.599,0,0,0,0,0,0,0,-1.5937,-1.594,-1.5969,-1.5959,-1.5959,-1.5956,-1.5957,-1.5974,-1.5975,-1.5963,-1.5962,-1.5964,-1.5978,-1.5983,-1.5985,-1.6011,-1.5988,-1.5989,-1.599,-1.5991,-1.6059,-1.606,0,0,0,0,0,0,-1.5936,-1.5939,-1.5968,-1.5969,-1.5946,-1.5957,-1.5959,-1.5967,-1.5975,-1.5975,-1.5965,-1.5964,-1.5981,-1.5983,-1.5985,-1.6015,-1.599,-1.5991,-1.5992,-1.6058,-1.6059,-1.606,0,0,0,0,0,0,-1.5935,-1.5939,-1.5968,-1.5954,-1.5957,-1.5959,-1.5968,-1.5967,-1.5973,-1.5976,-1.5976,-1.597,-1.598,-1.5983,-1.6003,-1.6016,-1.5992,-1.5993,-1.6057,-1.6058,-1.6059,-1.6076,0,0,0,0,0,0,-1.5934,-1.5939,-1.5948,-1.5954,-1.5958,-1.5985,-1.5968,-1.5968,-1.5975,-1.5973,-1.5981,-1.5981,-1.598,-1.6001,-1.6005,-1.6017,-1.5994,-1.6056,-1.6057,-1.6059,-1.6075,-1.6078,-1.6081,0,0,0,0,0,-1.5933,-1.5953,-1.5949,-1.5952,-1.597,-1.5986,-1.5988,-1.5986,-1.5976,-1.5986,-1.5988,-1.5981,-1.6014,-1.6003,-1.6007,-1.6021,-1.6055,-1.6057,-1.6059,-1.6073,-1.6077,-1.6081,0,0,0,0,0,0,-1.5948,-1.5953,-1.5949,-1.5971,-1.5978,-1.5984,-1.5995,-1.599,-1.6,-1.5998,-1.5995,-1.5997,-1.6018,-1.6022,-1.6009,-1.6046,-1.6033,-1.6036,-1.6043,-1.6047,-1.605,-1.6048,-1.5995,0,0,0,0,0,-1.5954,-1.5966,-1.597,-1.599,-1.5993,-1.5994,-1.6001,-1.5998,-1.6005,-1.6008,-1.6012,-1.602,-1.6032,-1.604,-1.6051,-1.6076,-1.6077,-1.6087,-1.609,-1.6093,-1.6095,-1.6108,-1.6112,-1.6067,-1.6067,-1.6067,0,0,-1.5967,-1.5971,-1.5979,-1.5993,-1.5998,-1.601,-1.5996,-1.6011,-1.602,-1.6011,-1.6029,-1.6033,-1.6041,-1.6063,-1.6073,-1.6067,-1.6108,-1.6096,-1.6098,-1.6098,-1.611,-1.6115,-1.6119,-1.6068,-1.6068,-1.6068,0,0,-1.5995,-1.6,-1.6016,-1.6022,-1.6029,-1.603,-1.6034,-1.604,-1.6042,-1.6061,-1.6054,-1.6065,-1.6086,-1.6092,-1.6098,-1.613,-1.6124,-1.6134,-1.615,-1.6163,-1.6167,-1.617,-1.618,-1.6184,-1.6137,-1.6137,-1.6137,0,-1.601,-1.6028,-1.6026,-1.604,-1.6046,-1.6039,-1.6055,-1.6061,-1.6072,-1.6076,-1.6069,-1.6095,-1.61,-1.6124,-1.6131,-1.6137,-1.6141,-1.6132,-1.6166,-1.6169,-1.6172,-1.6182,-1.6186,-1.6138,-1.6138,-1.6138,-1.6137,0,-1.6045,-1.6058,-1.607,-1.6081,-1.6089,-1.6104,-1.6104,-1.6113,-1.611,-1.6111,-1.6131,-1.6137,-1.6149,-1.6155,-1.6153,-1.6178,-1.6174,-1.6167,-1.6153,-1.6178,-1.6187,-1.6191,-1.6139,-1.6139,-1.6139,-1.6138,0,0,-1.6083,-1.6092,-1.6096,-1.6101,-1.6109,-1.6119,-1.6135,-1.6146,-1.6153,-1.6162,-1.6174,-1.6193,-1.6186,-1.6193,-1.6191,-1.6203,-1.6227,-1.6194,-1.6194,-1.6199,-1.6254,-1.6258,-1.6263,-1.6223,-1.6224,-1.6225,-1.6253,0,-1.6111,-1.6137,-1.6135,-1.6159,-1.6171,-1.6164,-1.6178,-1.6185,-1.6187,-1.6197,-1.62,-1.6212,-1.6203,-1.6207,-1.6218,-1.6221,-1.6237,-1.6219,-1.6235,-1.6235,-1.6231,-1.6268,-1.6272,-1.6299,-1.6257,-1.6257,-1.6258,0,-1.6147,-1.6156,-1.6181,-1.6187,-1.6192,-1.6204,-1.6214,-1.6225,-1.6233,-1.6234,-1.6241,-1.6238,-1.6254,-1.6242,-1.6263,-1.6251,-1.6258,-1.626,-1.6261,-1.6262,-1.6247,-1.6268,-1.6307,-1.6311,-1.6264,-1.6263,-1.6263,0,-1.617,-1.6189,-1.6206,-1.621,-1.6219,-1.6227,-1.6231,-1.6238,-1.6245,-1.6255,-1.6259,-1.6271,-1.6277,-1.6286,-1.6287,-1.6278,-1.6309,-1.6296,-1.631,-1.631,-1.6315,-1.6314,-1.6355,-1.6322,-1.6322,-1.6322,-1.6322,0,-1.6201,-1.6216,-1.6217,-1.6227,-1.6244,-1.6243,-1.626,-1.6264,-1.627,-1.6281,-1.6277,-1.6288,-1.6288,-1.63,-1.6301,-1.6318,-1.6322,-1.6323,-1.6322,-1.6322,-1.6322,-1.6325,-1.6323,-1.6323,-1.6322,-1.6322,-1.6322,0,-1.6229,-1.623,-1.6248,-1.6255,-1.6257,-1.6269,-1.6274,-1.6285,-1.6287,-1.6301,-1.6305,-1.6308,-1.6321,-1.6323,-1.6338,-1.6339,-1.636,-1.6359,-1.6357,-1.6356,-1.6369,-1.6367,-1.6412,-1.6417,-1.6382,-1.6382,-1.6382,0,-1.6248,-1.6259,-1.6267,-1.6274,-1.6278,-1.6289,-1.6296,-1.6296,-1.6304,-1.6314,-1.6323,-1.6336,-1.6345,-1.6367,-1.6371,-1.6383,-1.6381,-1.6396,-1.6383,-1.6382,-1.638,-1.6379,-1.638,-1.6398,-1.6398,-1.6399,-1.6399,0,-1.6281,-1.628,-1.629,-1.6301,-1.6309,-1.6317,-1.6325,-1.6331,-1.6332,-1.6341,-1.6354,-1.6362,-1.6378,-1.639,-1.6402,-1.6407,-1.6403,-1.6403,-1.6407,-1.6406,-1.6404,-1.6404,-1.6362,-1.6402,-1.6402,-1.6401,-1.6401,-1.6401,-1.6304,-1.6314,-1.632,-1.6331,-1.6337,-1.6345,-1.6354,-1.6357,-1.6368,-1.638,-1.638,-1.6394,-1.6402,-1.6418,-1.6424,-1.6435,-1.643,-1.6436,-1.6437,-1.6438,-1.6439,-1.6403,-1.6438,-1.6438,-1.6438,-1.6438,-1.6438,0,-1.6335,-1.6339,-1.635,-1.636,-1.6369,-1.6365,-1.6374,-1.6381,-1.6394,-1.6401,-1.6411,-1.6426,-1.6439,-1.6444,-1.6457,-1.6465,-1.6463,-1.6468,-1.6467,-1.6468,-1.6443,-1.6438,-1.6469,-1.6469,-1.6469,-1.6469,-1.6469,-1.6469,-1.6353,-1.6369,-1.637,-1.6389,-1.6393,-1.6406,-1.6411,-1.6418,-1.6424,-1.6441,-1.6451,-1.6454,-1.6461,-1.6474,-1.6485,-1.6487,-1.6491,-1.6496,-1.6497,-1.6473,-1.647,-1.6466,-1.6462,-1.6497,-1.6497,-1.652,-1.6521,-1.6521]},{"header":{"parameterUnit":"m.s-1","parameterCategory":1,"la1":30.2991,"la2":30.254,"lo1":-89.0895,"lo2":-89.0444,"dy":0.0017,"dx":0.0017,"nx":28,"ny":28,"refTime":"2024-12-26T03:00:00:Z","depth":0,"parameterNumber":3,"parameterNumberName":"V-component_of_WINDS"},"data":[0,0,0,0,0,0,0,0,0,0,0,0,0,0,0,0,0,0,0,0,0,0,0,0,0,0,0,0,0,0,0,0,0,0,0,0,0,0,0,0,0,0,0,0,0,0,0,0,0,0,0,0,0,0,0,0,0,0,3.3647,3.3649,0,3.38,3.3802,3.3804,3.3844,3.3843,3.3842,3.3841,3.3999,3.4004,3.4009,0,0,0,0,0,0,0,0,0,0,0,0,0,3.3392,3.3397,3.3647,3.3649,3.3651,3.38,3.3802,3.3804,3.3844,3.3843,3.3841,3.384,3.3997,3.4003,3.4009,0,0,0,0,0,0,0,0,0,0,0,0,0,3.352,3.3398,3.3647,3.3689,3.3694,3.38,3.3802,3.3805,3.3844,3.3843,3.3841,3.384,3.3995,3.4003,3.401,3.4086,0,0,3.4033,3.4037,0,0,0,0,0,0,0,0,3.3512,3.3529,3.3681,3.3686,3.3692,3.3801,3.377,3.3899,3.3844,3.3787,3.3841,3.3839,3.3934,3.3947,3.3979,3.4093,3.41,3.4034,3.4039,3.4042,3.4044,0,0,0,0,0,0,0,3.3504,3.3523,3.3708,3.3683,3.369,3.3701,3.3717,3.3795,3.3867,3.3792,3.3795,3.3813,3.3937,3.3971,3.3983,3.4102,3.4034,3.4041,3.4045,3.4048,3.4289,3.4291,0,0,0,0,0,0,3.3487,3.3515,3.3703,3.3712,3.3597,3.3706,3.3725,3.3768,3.3866,3.388,3.3814,3.3814,3.3959,3.3974,3.3988,3.4086,3.4042,3.4049,3.4053,3.4287,3.4289,3.4291,0,0,0,0,0,0,3.3482,3.3504,3.3697,3.3615,3.364,3.3712,3.376,3.3772,3.3806,3.3883,3.3896,3.3835,3.3958,3.3978,3.4062,3.4092,3.4053,3.4059,3.4285,3.4288,3.429,3.4279,0,0,0,0,0,0,3.3474,3.3501,3.353,3.3615,3.3644,3.3767,3.3762,3.3776,3.3819,3.382,3.3906,3.3919,3.3959,3.405,3.4069,3.4102,3.4065,3.4283,3.4286,3.429,3.4278,3.4281,3.4285,0,0,0,0,0,3.3465,3.352,3.3531,3.3554,3.3682,3.3768,3.3785,3.3829,3.3821,3.3851,3.3901,3.3916,3.4085,3.4058,3.408,3.4115,3.4281,3.4285,3.4289,3.4276,3.4281,3.4285,0,0,0,0,0,0,3.3437,3.3532,3.3545,3.363,3.3691,3.3775,3.3814,3.3833,3.3898,3.3897,3.3949,3.3968,3.4049,3.409,3.4059,3.4195,3.4183,3.4192,3.4166,3.4171,3.4174,3.4164,3.4072,0,0,0,0,0,3.3441,3.3502,3.3582,3.3649,3.3679,3.3741,3.3781,3.381,3.3875,3.3901,3.3957,3.402,3.4088,3.4131,3.4197,3.4283,3.4304,3.4318,3.4322,3.4324,3.4332,3.4383,3.4391,3.4305,3.4305,3.4305,0,0,3.3449,3.3509,3.3544,3.3645,3.3696,3.376,3.3763,3.383,3.3879,3.3911,3.3995,3.4038,3.4112,3.4198,3.4239,3.4235,3.436,3.4329,3.4331,3.4338,3.4388,3.4396,3.4404,3.4308,3.4307,3.4307,0,0,3.3498,3.3548,3.3611,3.3661,3.3738,3.3779,3.3794,3.3876,3.3906,3.399,3.4017,3.4076,3.419,3.4243,3.4285,3.4355,3.4373,3.4375,3.4395,3.4444,3.4451,3.4458,3.4485,3.4494,3.4382,3.4382,3.4382,0,3.3499,3.3596,3.3641,3.3708,3.3752,3.3784,3.385,3.3897,3.3991,3.4022,3.4016,3.4162,3.4214,3.4314,3.4331,3.4363,3.4384,3.4366,3.4446,3.4453,3.446,3.4487,3.4497,3.4382,3.4382,3.4382,3.4382,0,3.3595,3.3662,3.3704,3.3794,3.3844,3.3909,3.3965,3.4009,3.4034,3.4076,3.4163,3.4226,3.4307,3.4333,3.4357,3.4437,3.4433,3.4436,3.4426,3.4467,3.4494,3.4505,3.4381,3.4382,3.4382,3.4382,0,0,3.3631,3.3747,3.3762,3.3804,3.3892,3.3945,3.4012,3.4091,3.413,3.4194,3.4253,3.435,3.4354,3.4401,3.4432,3.4475,3.453,3.4473,3.4476,3.4484,3.4626,3.4625,3.4636,3.4541,3.4544,3.4545,3.4621,0,3.3693,3.3815,3.3858,3.3959,3.4023,3.4055,3.4114,3.4175,3.4216,3.4277,3.4323,3.4392,3.439,3.442,3.4463,3.4514,3.456,3.4509,3.46,3.4602,3.4583,3.465,3.4649,3.4717,3.4631,3.4633,3.4634,0,3.3782,3.3848,3.3955,3.4037,3.4065,3.4118,3.4195,3.4252,3.4322,3.4349,3.4403,3.4431,3.4504,3.4488,3.4591,3.4556,3.4595,3.4626,3.463,3.4642,3.4622,3.4667,3.4739,3.475,3.465,3.4649,3.4648,0,3.3801,3.3917,3.3997,3.4032,3.4128,3.4165,3.4207,3.4275,3.4321,3.4388,3.4419,3.4493,3.4535,3.4593,3.4641,3.4624,3.4741,3.4728,3.4768,3.4767,3.4793,3.4791,3.4876,3.4813,3.4813,3.4813,3.4813,0,3.3868,3.3933,3.4007,3.4057,3.4132,3.418,3.4253,3.4297,3.4358,3.4418,3.4449,3.4505,3.4564,3.4627,3.4665,3.4747,3.4764,3.479,3.48,3.4789,3.4786,3.4817,3.4815,3.4816,3.4815,3.4815,3.4814,0,3.3903,3.3955,3.4045,3.4129,3.4152,3.4203,3.4276,3.4326,3.4368,3.4444,3.4464,3.4531,3.4608,3.4661,3.4759,3.4785,3.4874,3.4881,3.4851,3.4856,3.4894,3.4891,3.5004,3.5023,3.4945,3.4945,3.4946,0,3.3943,3.3995,3.4084,3.4127,3.4169,3.4236,3.4283,3.4333,3.4381,3.4465,3.4506,3.4584,3.4651,3.4772,3.483,3.4906,3.4917,3.4952,3.4929,3.4917,3.4922,3.4919,3.4926,3.4956,3.4957,3.4957,3.4957,0,3.4011,3.4034,3.41,3.4176,3.4231,3.4294,3.4356,3.4389,3.445,3.4503,3.4581,3.4633,3.4733,3.4812,3.4894,3.4938,3.4959,3.4964,3.4978,3.4969,3.495,3.4964,3.4863,3.4962,3.4961,3.4961,3.4961,3.496,3.4052,3.41,3.4172,3.4245,3.4297,3.4355,3.4407,3.4456,3.4523,3.4609,3.4634,3.4717,3.4788,3.49,3.4945,3.5011,3.5009,3.5028,3.5034,3.5039,3.504,3.4937,3.5026,3.5026,3.5026,3.5026,3.5026,0,3.4124,3.4171,3.4238,3.4325,3.4383,3.4397,3.4467,3.4515,3.4588,3.4651,3.4716,3.4808,3.4884,3.4949,3.5028,3.5069,3.5081,3.5089,3.5088,3.5099,3.5036,3.5018,3.5078,3.5078,3.5078,3.5078,3.5078,3.5078,3.4168,3.4251,3.4283,3.4393,3.4441,3.4522,3.4561,3.4616,3.4667,3.4768,3.4833,3.4874,3.4939,3.5023,3.5095,3.5112,3.5141,3.5147,3.5167,3.5108,3.5102,3.5097,3.508,3.5153,3.5153,3.5224,3.5225,3.5226]}]]